Location: Hac?musa Deresi
(39.1694°N, 32.2508°E)
Time: 09:38:46
(UTC+00:00)

ISS - Visible Passes

Search period start: 11 June 2026 00:00
Search period end: 21 June 2026 00:00
Orbit: 415 x 423 km, 51.6° (Epoch: 10 June)

Date Brightness Start Highest point End Pass type
(mag) Time Alt. Az. Time Alt. Az. Time Alt. Az.
17 Jun -1.3 01:36:09 10° S 01:38:19 16° SE 01:40:29 10° E visible
19 Jun -3.1 01:36:17 11° SSW 01:39:29 49° SE 01:42:46 10° ENE visible
20 Jun -2.3 00:50:30 20° S 00:51:53 27° SE 00:54:49 10° ENE visible
